Time,TemperatureF,DewpointF,PressureIn,WindDirection,WindDirectionDegrees,WindSpeedMPH,WindSpeedGustMPH,Humidity,HourlyPrecipIn,Conditions,Clouds,dailyrainin,SoftwareType,DateUTC
2013-11-07 00:06:00,64.4,62.6,29.80,SSE,157,0.0,-999.0,94,-99.99,,,0.00,Acu-Link.com,2013-11-07 05:06:00,
2013-11-07 00:22:00,64.0,62.2,29.80,SSW,202,0.0,-999.0,94,-99.99,,,0.00,Acu-Link.com,2013-11-07 05:22:00,
2013-11-07 00:37:00,64.0,62.5,29.79,South,180,2.2,-999.0,95,-99.99,,,0.00,Acu-Link.com,2013-11-07 05:37:00,
2013-11-07 00:52:00,63.7,63.1,29.78,NNW,337,1.1,-999.0,98,-99.99,,,0.00,Acu-Link.com,2013-11-07 05:52:00,
2013-11-07 01:07:00,62.6,62.0,29.79,NNW,337,0.0,-999.0,98,-99.99,,,0.00,Acu-Link.com,2013-11-07 06:07:00,
2013-11-07 01:22:00,62.2,61.6,29.79,NNE,22,0.0,-999.0,98,-99.99,,,0.00,Acu-Link.com,2013-11-07 06:22:00,
2013-11-07 01:37:00,61.5,60.9,29.79,South,180,0.0,-999.0,98,-99.99,,,0.03,Acu-Link.com,2013-11-07 06:37:00,
2013-11-07 01:53:00,61.5,60.9,29.79,South,180,0.0,-999.0,98,-99.99,,,0.04,Acu-Link.com,2013-11-07 06:53:00,
2013-11-07 02:08:00,61.3,60.7,29.80,NNW,337,0.0,-999.0,98,-99.99,,,0.06,Acu-Link.com,2013-11-07 07:08:00,
2013-11-07 02:23:00,61.0,60.4,29.80,West,270,0.0,-999.0,98,-99.99,,,0.12,Acu-Link.com,2013-11-07 07:23:00,
2013-11-07 02:38:00,61.0,60.4,29.79,West,270,0.0,-999.0,98,-99.99,,,0.16,Acu-Link.com,2013-11-07 07:38:00,
2013-11-07 02:53:00,61.0,60.4,29.80,SSW,202,0.0,-999.0,98,-99.99,,,0.22,Acu-Link.com,2013-11-07 07:53:00,
2013-11-07 03:08:00,61.0,60.4,29.80,SSW,202,0.0,-999.0,98,-99.99,,,0.23,Acu-Link.com,2013-11-07 08:08:00,
2013-11-07 03:23:00,61.0,60.1,29.79,East,90,1.7,-999.0,97,-99.99,,,0.25,Acu-Link.com,2013-11-07 08:23:00,
2013-11-07 03:39:00,61.0,59.8,29.78,South,180,1.1,-999.0,96,-99.99,,,0.27,Acu-Link.com,2013-11-07 08:39:00,
2013-11-07 03:54:00,61.0,59.6,29.77,South,180,2.2,-999.0,95,-99.99,,,0.27,Acu-Link.com,2013-11-07 08:54:00,
2013-11-07 04:09:00,61.2,59.5,29.78,SW,225,2.7,-999.0,94,-99.99,,,0.27,Acu-Link.com,2013-11-07 09:09:00,
2013-11-07 04:25:00,61.2,59.5,29.77,South,180,2.2,-999.0,94,-99.99,,,0.28,Acu-Link.com,2013-11-07 09:25:00,
2013-11-07 04:40:00,61.2,59.5,29.77,SSW,202,3.2,-999.0,94,-99.99,,,0.29,Acu-Link.com,2013-11-07 09:40:00,
2013-11-07 04:55:00,61.0,59.3,29.77,South,180,0.0,-999.0,94,-99.99,,,0.29,Acu-Link.com,2013-11-07 09:55:00,
2013-11-07 05:10:00,61.0,59.3,29.76,SSW,202,1.7,-999.0,94,-99.99,,,0.33,Acu-Link.com,2013-11-07 10:10:00,
2013-11-07 05:26:00,60.8,59.1,29.76,WNW,292,0.0,-999.0,94,-99.99,,,0.34,Acu-Link.com,2013-11-07 10:26:00,
2013-11-07 05:41:00,60.4,58.7,29.78,East,90,0.0,-999.0,94,-99.99,,,0.34,Acu-Link.com,2013-11-07 10:41:00,
2013-11-07 05:56:00,60.4,58.7,29.79,SW,225,0.0,-999.0,94,-99.99,,,0.34,Acu-Link.com,2013-11-07 10:56:00,
2013-11-07 06:11:00,57.9,57.3,29.80,NNW,337,4.7,-999.0,98,-99.99,,,0.35,Acu-Link.com,2013-11-07 11:11:00,
2013-11-07 06:26:00,56.3,55.7,29.81,NE,45,2.7,-999.0,98,-99.99,,,0.35,Acu-Link.com,2013-11-07 11:26:00,
2013-11-07 06:41:00,55.8,55.2,29.83,ESE,112,0.0,-999.0,98,-99.99,,,0.35,Acu-Link.com,2013-11-07 11:41:00,
2013-11-07 06:56:00,55.6,55.0,29.83,NNW,337,0.0,-999.0,98,-99.99,,,0.35,Acu-Link.com,2013-11-07 11:56:00,
2013-11-07 07:11:00,55.2,54.6,29.84,West,270,0.0,-999.0,98,-99.99,,,0.35,Acu-Link.com,2013-11-07 12:11:00,
2013-11-07 07:26:00,54.9,54.3,29.84,NE,45,1.1,-999.0,98,-99.99,,,0.35,Acu-Link.com,2013-11-07 12:26:00,
2013-11-07 07:42:00,54.7,54.1,29.84,NW,315,3.7,-999.0,98,-99.99,,,0.35,Acu-Link.com,2013-11-07 12:42:00,
2013-11-07 07:57:00,53.2,52.6,29.86,North,0,6.3,-999.0,98,-99.99,,,0.35,Acu-Link.com,2013-11-07 12:57:00,
2013-11-07 08:12:00,52.5,52.0,29.88,NNE,22,3.7,-999.0,98,-99.99,,,0.35,Acu-Link.com,2013-11-07 13:12:00,
2013-11-07 08:28:00,52.2,51.7,29.89,West,270,2.7,-999.0,98,-99.99,,,0.35,Acu-Link.com,2013-11-07 13:28:00,
2013-11-07 08:43:00,52.3,51.5,29.90,NW,315,5.3,-999.0,97,-99.99,,,0.35,Acu-Link.com,2013-11-07 13:43:00,
2013-11-07 08:58:00,53.2,52.4,29.91,NW,315,4.7,-999.0,97,-99.99,,,0.35,Acu-Link.com,2013-11-07 13:58:00,
2013-11-07 09:13:00,52.5,50.5,29.93,NE,45,10.4,-999.0,93,-99.99,,,0.35,Acu-Link.com,2013-11-07 14:13:00,
2013-11-07 09:28:00,51.1,49.4,29.94,ENE,67,5.3,-999.0,94,-99.99,,,0.35,Acu-Link.com,2013-11-07 14:28:00,
2013-11-07 09:44:00,51.3,49.3,29.95,NNW,337,6.8,-999.0,93,-99.99,,,0.35,Acu-Link.com,2013-11-07 14:44:00,
2013-11-07 09:59:00,50.7,47.3,29.96,NNW,337,7.3,-999.0,88,-99.99,,,0.35,Acu-Link.com,2013-11-07 14:59:00,
2013-11-07 10:14:00,50.7,47.9,29.98,NNE,22,8.3,-999.0,90,-99.99,,,0.35,Acu-Link.com,2013-11-07 15:14:00,
2013-11-07 10:29:00,50.7,47.9,29.98,NNW,337,6.8,-999.0,90,-99.99,,,0.35,Acu-Link.com,2013-11-07 15:29:00,
2013-11-07 10:44:00,50.7,47.6,29.98,NE,45,7.8,-999.0,89,-99.99,,,0.35,Acu-Link.com,2013-11-07 15:44:00,
2013-11-07 11:00:00,50.4,46.7,29.98,North,0,7.3,-999.0,87,-99.99,,,0.35,Acu-Link.com,2013-11-07 16:00:00,
2013-11-07 11:52:00,52.0,47.0,29.99,ENE,67,5.8,-999.0,83,-99.99,,,0.35,Acu-Link.com,2013-11-07 16:52:00,
2013-11-07 12:17:00,52.5,45.5,29.98,North,0,8.9,-999.0,77,-99.99,,,0.35,Acu-Link.com,2013-11-07 17:17:00,
2013-11-07 12:38:00,54.0,46.3,29.97,NE,45,8.9,-999.0,75,-99.99,,,0.35,Acu-Link.com,2013-11-07 17:38:00,
2013-11-07 13:01:00,54.1,46.4,29.96,NW,315,5.8,-999.0,75,-99.99,,,0.35,Acu-Link.com,2013-11-07 18:01:00,
2013-11-07 13:18:00,53.4,45.3,29.95,NW,315,9.4,-999.0,74,-99.99,,,0.35,Acu-Link.com,2013-11-07 18:18:00,
2013-11-07 13:36:00,53.8,45.7,29.95,NW,315,13.0,-999.0,74,-99.99,,,0.35,Acu-Link.com,2013-11-07 18:36:00,
2013-11-07 14:00:00,56.1,46.5,29.94,NW,315,7.8,-999.0,70,-99.99,,,0.35,Acu-Link.com,2013-11-07 19:00:00,
2013-11-07 14:24:00,56.1,46.5,29.94,East,90,6.3,-999.0,70,-99.99,,,0.35,Acu-Link.com,2013-11-07 19:24:00,
2013-11-07 15:01:00,57.6,44.3,29.93,East,90,8.3,-999.0,61,-99.99,,,0.35,Acu-Link.com,2013-11-07 20:01:00,
2013-11-07 15:18:00,57.9,44.1,29.92,East,90,5.8,-999.0,60,-99.99,,,0.35,Acu-Link.com,2013-11-07 20:18:00,
2013-11-07 15:49:00,57.4,41.8,29.93,NNW,337,9.4,-999.0,56,-99.99,,,0.35,Acu-Link.com,2013-11-07 20:49:00,
2013-11-07 16:06:00,56.7,41.6,29.93,NW,315,6.8,-999.0,57,-99.99,,,0.35,Acu-Link.com,2013-11-07 21:06:00,
2013-11-07 16:22:00,56.7,41.6,29.93,West,270,4.7,-999.0,57,-99.99,,,0.35,Acu-Link.com,2013-11-07 21:22:00,
2013-11-07 16:42:00,55.2,39.8,29.93,NE,45,5.8,-999.0,56,-99.99,,,0.35,Acu-Link.com,2013-11-07 21:42:00,
2013-11-07 16:57:00,54.7,40.2,29.93,NW,315,5.3,-999.0,58,-99.99,,,0.35,Acu-Link.com,2013-11-07 21:57:00,
2013-11-07 17:12:00,53.8,39.4,29.94,ENE,67,3.7,-999.0,58,-99.99,,,0.35,Acu-Link.com,2013-11-07 22:12:00,
2013-11-07 17:27:00,53.6,39.2,29.94,West,270,3.2,-999.0,58,-99.99,,,0.35,Acu-Link.com,2013-11-07 22:27:00,
2013-11-07 17:44:00,52.3,39.3,29.95,NNW,337,4.7,-999.0,61,-99.99,,,0.35,Acu-Link.com,2013-11-07 22:44:00,
2013-11-07 18:20:00,50.2,39.7,29.96,NNE,22,4.2,-999.0,67,-99.99,,,0.35,Acu-Link.com,2013-11-07 23:20:00,
2013-11-07 18:35:00,49.8,39.7,29.97,North,0,3.7,-999.0,68,-99.99,,,0.35,Acu-Link.com,2013-11-07 23:35:00,
2013-11-07 18:53:00,49.3,39.6,29.97,NE,45,3.2,-999.0,69,-99.99,,,0.35,Acu-Link.com,2013-11-07 23:53:00,
2013-11-07 19:08:00,48.9,39.2,29.97,NNE,22,5.3,-999.0,69,-99.99,,,0.35,Acu-Link.com,2013-11-08 00:08:00,
2013-11-07 19:28:00,48.6,39.3,29.97,WNW,292,5.3,-999.0,70,-99.99,,,0.35,Acu-Link.com,2013-11-08 00:28:00,
2013-11-07 19:47:00,48.2,39.2,29.98,WNW,292,2.7,-999.0,71,-99.99,,,0.35,Acu-Link.com,2013-11-08 00:47:00,
2013-11-07 20:02:00,48.0,39.1,29.98,NW,315,3.2,-999.0,71,-99.99,,,0.35,Acu-Link.com,2013-11-08 01:02:00,
2013-11-07 20:18:00,47.7,38.8,29.98,NW,315,3.7,-999.0,71,-99.99,,,0.35,Acu-Link.com,2013-11-08 01:18:00,
2013-11-07 20:38:00,47.1,38.5,29.98,NNW,337,2.7,-999.0,72,-99.99,,,0.35,Acu-Link.com,2013-11-08 01:38:00,
2013-11-07 20:53:00,46.0,38.5,29.99,WNW,292,2.2,-999.0,75,-99.99,,,0.35,Acu-Link.com,2013-11-08 01:53:00,
2013-11-07 21:08:00,45.3,38.2,29.99,NNE,22,2.2,-999.0,76,-99.99,,,0.35,Acu-Link.com,2013-11-08 02:08:00,
2013-11-07 21:23:00,44.6,38.2,30.00,ENE,67,2.2,-999.0,78,-99.99,,,0.35,Acu-Link.com,2013-11-08 02:23:00,
2013-11-07 21:38:00,43.9,37.8,29.99,NNE,22,2.7,-999.0,79,-99.99,,,0.35,Acu-Link.com,2013-11-08 02:38:00,
2013-11-07 21:53:00,43.5,37.4,30.00,East,90,1.7,-999.0,79,-99.99,,,0.35,Acu-Link.com,2013-11-08 02:53:00,
2013-11-07 22:13:00,43.9,37.5,30.00,NE,45,2.2,-999.0,78,-99.99,,,0.35,Acu-Link.com,2013-11-08 03:13:00,
2013-11-07 22:28:00,43.5,37.1,30.01,NNE,22,4.2,-999.0,78,-99.99,,,0.35,Acu-Link.com,2013-11-08 03:28:00,